Location: Home
(42.5358°N, 72.7383°W)
Time: 11:35:27
(UTC-05:00)

Vanguard 2 Rocket - Pass Details

Date: 21 December 2025
Orbit: 553 x 3287 km, 32.9° (Epoch: 17 January)

Event Time Altitude Azimuth Distance (km) Brightness Sun altitude
Rises 05:07:50 0° 223° (SW) 6,287 10.9 -23.0°
Reaches altitude 10° 05:11:53 10° 217° (SW) 5,563 10.6 -22.2°
Maximum altitude 05:28:30 45° 152° (SSE) 4,014 10.4 -19.2°
Drops below altitude 10° 05:46:08 10° 89° (E) 5,904 12.2 -16.1°
Sets 05:50:32 0° 83° (E) 6,688 12.6 -15.4°
